Flag for U.S.A. Weather past 2 weeks in Columbus, Georgia, U.S.A.

Now
44 °F

Low clouds.


Feels Like: 39 °F
Forecast: 42 / 56 °F
Wind: 9 mph from Southeast

Location: Columbus Metropolitan Airport

Current Time: Mar 1, 2015 at 1:53:51 AM

Latest Report: Mar 1, 2015 at 12:51 AM


Visibility: 8 mi

Pressure: 30.50 "Hg

Humidity: 89%

Dew point: 41 °F

Location of ColumbusLocation

Historic Weather in Columbus — Graph

°F

Columbus temperature yesterday

Maximum temperature yesterday: 58 °F (at 2:51 PM)
Minimum temperature yesterday: 34 °F (at 2:51 AM)
Average temperature yesterday: 45 °F

Past Weeks' High & Low Weather Summary

 TemperatureHumidityPressure
High69 °F (Feb 22, 3:51 PM)100% (Feb 22, 7:51 AM)30.53 "Hg (Feb 22, 7:51 AM)
Low21 °F (Feb 19, 6:51 AM)11% (Feb 15, 1:51 PM)29.67 "Hg (Feb 25, 9:51 PM)
Average42 °F59%30.15 "Hg
* Reported Feb 14 12:51 AM — Mar 1 12:51 AM, Columbus, Weather by CustomWeather, © 2015

Note: Actual official high and low records may vary slightly from our data, if they occured in-between our weather recording intervals... More about our weather records

Advertising

Columbus weather history for previous 24 hours

 ConditionsComfort  
Time TempWeatherWind HumidityBarometerVisibility
12:51 AM
Sun, Mar 1
44 °FLow clouds.9 mph89%30.50 "Hg8 mi
11:51 PM
Sat, Feb 28
44 °FLight rain. Fog.8 mph93%30.52 "Hg6 mi
10:51 PM44 °FLow clouds.10 mph93%30.53 "Hg9 mi
10:04 PM45 °FLight rain. Fog.7 mph93%30.53 "Hg4 mi
9:51 PM45 °FFog.9 mph93%30.53 "Hg6 mi
8:51 PM46 °FLight rain. Fog.12 mph86%30.50 "Hg6 mi
7:51 PM48 °FOvercast.12 mph77%30.49 "Hg10 mi
6:51 PM50 °FPartly cloudy.13 mph68%30.47 "Hg10 mi
5:51 PM54 °FOvercast.13 mph55%30.45 "Hg10 mi
4:51 PM56 °FOvercast.14 mph47%30.44 "Hg10 mi
3:51 PM58 °FPartly sunny.14 mph47%30.44 "Hg9 mi
2:51 PM58 °FPartly sunny.12 mph47%30.44 "Hg10 mi
1:51 PM57 °FPartly sunny.10 mph47%30.47 "Hg10 mi
12:51 PM55 °FSunny.15 mph49%30.50 "Hg10 mi
11:51 AM51 °FSunny.13 mph50%30.53 "Hg10 mi
10:51 AM50 °FSunny.13 mph50%30.53 "Hg10 mi
9:51 AM46 °FSunny.16 mph56%30.53 "Hg10 mi
8:51 AM43 °FSunny.10 mph62%30.53 "Hg10 mi
7:51 AM39 °FSunny.3 mph65%30.50 "Hg10 mi
6:51 AM37 °FClear.6 mph62%30.49 "Hg10 mi
5:51 AM36 °FClear.3 mph59%30.46 "Hg10 mi
4:51 AM34 °FClear.3 mph61%30.45 "Hg10 mi
3:51 AM34 °FClear.No wind61%30.43 "Hg10 mi
2:51 AM34 °FClear.3 mph59%30.43 "Hg10 mi
1:51 AM36 °FClear.No wind52%30.44 "Hg10 mi
Weather by CustomWeather, © 2015

See weather overviewHow to use our weather pages